GSAT0103 (GALILEO-FM3)

Last updated on Fri Dec 19 2025 00:02:37 GMT+0000 (Coordinated Universal Time)

1 38857U 12055A 25351.63368430 -.00000008 00000+0 00000+0 0 9990 2 38857 55.6952 106.5322 0002823 269.0015 90.9249 1.70473416 81917
UTC large
Height (km)
Speed (km/s)
/
Latitude / Longitude
Inclination (degrees)
Orbital Period (minutes)
Azimuth
Elevation
Range (km)
Doppler Factor

Next 0 passes for location: London (51.5072 / 0.1276)

Sorry there are no passes over London.